Regional Weather Roundup
Issued by NWS

Home | Current Version | Previous Version | Graphics & Text | Print | Product List | Glossary Off
Versions: 1 2 3 4 5 6 7 8 9 10 11 12 13 14 15 16 17 18 19 20 21 22 23 24 25 26 27 28 29 30 31 32 33 34 35 36 37 38 39 40 41 42 43 44 45 46 47 48 49 50

000
ASUS43 KFSD 280202
RWRSD

WEATHER ROUNDUP FOR SOUTH DAKOTA
NATIONAL WEATHER SERVICE SIOUX FALLS SD
900 PM CDT MON JUL 27 2015

NOTE: "FAIR" INDICATES FEW OR NO CLOUDS BELOW 12,000 FEET WITH NO
SIGNIFICANT WEATHER AND/OR OBSTRUCTIONS TO VISIBILITY.


SDZ001>005-009-010-012>017-280300-
NORTHWEST AND NORTH CENTRAL SOUTH DAKOTA

CITY           SKY/WX    TMP DP  RH WIND       PRES   REMARKS
FAITH            N/A     68  59  73 SE15G22   29.78R
MOBRIDGE       MOCLDY    85  74  69 SE21G28   29.64R
$$

SDZ012>016-024>037-041>051-057-063-072>074-280300-
SOUTHWEST AND SOUTH CENTRAL SOUTH DAKOTA

CITY           SKY/WX    TMP DP  RH WIND       PRES   REMARKS
RAPID CTY ARPT CLOUDY    67  63  87 SE8       29.69R
PIERRE         PTCLDY    86  68  54 SE16      29.64R
CUSTER         FOG       58  54  86 W6        29.87R VSB 1
ELLSWORTH AFB  CLOUDY    67  65  93 W8        29.70
PHILIP         MOCLDY    84  69  60 E6        29.63R
PINE RIDGE     TSTM      69  60  73 NW9G23    29.70R
WINNER         FAIR      87  70  56 SE13      29.69R
$$

SDZ004>011-016>023-039-040-280300-
NORTHEAST SOUTH DAKOTA

CITY           SKY/WX    TMP DP  RH WIND       PRES   REMARKS
ABERDEEN       CLEAR     80  70  71 SE9       29.71S
WATERTOWN      CLEAR     80  70  71 SE7       29.78F
BROOKINGS      CLEAR     79  72  78 SE13      29.80F
$$

SDZ017-020-022-023-036>040-048>070-280300-
SOUTHEAST SOUTH DAKOTA

CITY           SKY/WX    TMP DP  RH WIND       PRES   REMARKS
SIOUX FALLS    PTCLDY    81  73  76 S13       29.78F
HURON          PTCLDY    82  75  79 SE9       29.70S
MITCHELL       CLEAR     83  70  64 SE12      29.73R
YANKTON        CLEAR     82  72  69 SE15G22   29.74S
$$

ABBREVIATIONS USED IN REMARKS
   TC - TEMPERATURE IN CELSIUS
  WCI - WIND CHILL INDEX
   HX - HEAT INDEX
  VSB - VISIBILITY



USA.gov is the U.S. government's official web portal to all federal, state and local government web resources and services.